Location: Peterborough
(44.3091°N, 78.3197°W)
Time: 01:29:11
(UTC-04:00)

SR - Pass Details

Date: 27 March 2023
Orbit: 581 x 867 km, 66.7° (Epoch: 02 June)

Event Time Altitude Azimuth Distance (km) Brightness Sun altitude
Rises 12:39:41 0° 316° (NW) 2,825 ? 47.5°
Reaches altitude 10° 12:42:11 10° 302° (WNW) 1,940 ? 47.6°
Maximum altitude 12:45:41 24° 248° (WSW) 1,279 ? 47.7°
Drops below altitude 10° 12:49:20 10° 195° (SSW) 2,024 ? 47.9°
Sets 12:52:01 0° 182° (S) 2,978 ? 48.0°
